When you browse on this site, cookies collect data to enhance your experience and personalize the content and advertising you see.
Visit our Privacy Policy to learn more. By continuing to use the site, you agree to this use of cookies and data.

Stündliche Wetter Kopylniki

Heute, 10 August, Montag

Zeit Temperatur Niederschläge Wind Luftdruck Luftfeuchtigkeit
00:00 +16°C° 0 mm 1 m/S 745 mmHg 94%
01:00 +16°C° 0 mm 1 m/S 744 mmHg 94%
02:00 +16°C° 0 mm 1 m/S 744 mmHg 95%
03:00 +16°C° 0 mm 1 m/S 744 mmHg 95%
04:00 +16°C° 0 mm 1 m/S 744 mmHg 95%
05:00 +16°C° 0 mm 1 m/S 744 mmHg 95%
06:00 +18°C° 0 mm 1 m/S 744 mmHg 90%
07:00 +20°C° 0 mm 1 m/S 744 mmHg 85%
08:00 +22°C° 0 mm 1 m/S 745 mmHg 80%
09:00 +23°C° 0.6 mm 1 m/S 745 mmHg 73%
10:00 +25°C° 0.6 mm 1 m/S 744 mmHg 67%
11:00 +26°C° 0.6 mm 1 m/S 744 mmHg 60%
12:00 +27°C° 0.4 mm 1 m/S 744 mmHg 57%
13:00 +27°C° 0.4 mm 1 m/S 744 mmHg 54%
14:00 +28°C° 0.4 mm 2 m/S 744 mmHg 50%
15:00 +27°C° 0.1 mm 2 m/S 743 mmHg 55%
16:00 +27°C° 0.1 mm 2 m/S 743 mmHg 59%
17:00 +27°C° 0.1 mm 2 m/S 743 mmHg 63%
18:00 +24°C° 0.5 mm 2 m/S 743 mmHg 73%
19:00 +21°C° 0.5 mm 2 m/S 743 mmHg 82%
20:00 +19°C° 0.5 mm 2 m/S 743 mmHg 92%
21:00 +18°C° 0 mm 2 m/S 743 mmHg 94%
22:00 +17°C° 0 mm 2 m/S 743 mmHg 95%
23:00 +17°C° 0 mm 2 m/S 743 mmHg 96%

Morgen, 11 August, Dienstag

Zeit Temperatur Niederschläge Wind Luftdruck Luftfeuchtigkeit
00:00 +16°C° 0 mm 2 m/S 743 mmHg 96%
01:00 +16°C° 0 mm 2 m/S 743 mmHg 96%
02:00 +15°C° 0 mm 2 m/S 744 mmHg 96%
03:00 +14°C° 0 mm 2 m/S 744 mmHg 96%
04:00 +14°C° 0 mm 2 m/S 744 mmHg 96%
05:00 +13°C° 0 mm 2 m/S 744 mmHg 96%
06:00 +13°C° 0 mm 3 m/S 744 mmHg 91%
07:00 +14°C° 0 mm 3 m/S 744 mmHg 85%
08:00 +16°C° 0 mm 3 m/S 745 mmHg 79%
09:00 +17°C° 0 mm 3 m/S 745 mmHg 72%
10:00 +18°C° 0 mm 4 m/S 745 mmHg 65%
11:00 +19°C° 0 mm 4 m/S 745 mmHg 58%
12:00 +19°C° 0 mm 4 m/S 745 mmHg 59%
13:00 +18°C° 0 mm 4 m/S 745 mmHg 61%
14:00 +18°C° 0 mm 4 m/S 745 mmHg 63%
15:00 +18°C° 0 mm 4 m/S 745 mmHg 63%
16:00 +17°C° 0 mm 4 m/S 745 mmHg 64%
17:00 +17°C° 0 mm 3 m/S 745 mmHg 65%
18:00 +16°C° 0 mm 3 m/S 745 mmHg 70%
19:00 +14°C° 0 mm 2 m/S 745 mmHg 74%
20:00 +13°C° 0 mm 2 m/S 745 mmHg 79%
21:00 +12°C° 0 mm 2 m/S 745 mmHg 82%
22:00 +10°C° 0 mm 2 m/S 745 mmHg 84%
23:00 +10°C° 0 mm 2 m/S 746 mmHg 87%

übermorgen, 12 August, Mittwoch

Zeit Temperatur Niederschläge Wind Luftdruck Luftfeuchtigkeit
00:00 +9°C° 0 mm 2 m/S 745 mmHg 89%
01:00 +9°C° 0 mm 2 m/S 745 mmHg 91%
02:00 +9°C° 0 mm 2 m/S 745 mmHg 93%
03:00 +9°C° 0 mm 3 m/S 745 mmHg 93%
04:00 +9°C° 0 mm 3 m/S 746 mmHg 92%
05:00 +9°C° 0 mm 3 m/S 746 mmHg 91%
06:00 +10°C° 0 mm 3 m/S 746 mmHg 86%
07:00 +11°C° 0 mm 3 m/S 746 mmHg 80%
08:00 +13°C° 0 mm 3 m/S 746 mmHg 75%
09:00 +14°C° 0 mm 3 m/S 746 mmHg 69%
10:00 +17°C° 0 mm 3 m/S 746 mmHg 63%
11:00 +18°C° 0 mm 4 m/S 746 mmHg 57%
12:00 +18°C° 0.1 mm 4 m/S 746 mmHg 57%
13:00 +18°C° 0.1 mm 4 m/S 746 mmHg 57%
14:00 +18°C° 0.1 mm 4 m/S 746 mmHg 57%
15:00 +18°C° 0 mm 4 m/S 746 mmHg 59%
16:00 +17°C° 0 mm 4 m/S 746 mmHg 60%
17:00 +16°C° 0 mm 3 m/S 746 mmHg 61%
18:00 +14°C° 0 mm 3 m/S 746 mmHg 66%
19:00 +14°C° 0 mm 2 m/S 746 mmHg 72%
20:00 +12°C° 0 mm 2 m/S 746 mmHg 77%
21:00 +12°C° 0 mm 2 m/S 746 mmHg 80%
22:00 +10°C° 0 mm 2 m/S 746 mmHg 83%
23:00 +9°C° 0 mm 2 m/S 746 mmHg 87%

13 August, Donnerstag

Zeit Temperatur Niederschläge Wind Luftdruck Luftfeuchtigkeit
00:00 +9°C° 0 mm 2 m/S 746 mmHg 86%
01:00 +9°C° 0 mm 2 m/S 746 mmHg 86%
02:00 +9°C° 0 mm 2 m/S 746 mmHg 85%
03:00 +9°C° 0 mm 2 m/S 746 mmHg 84%
04:00 +9°C° 0 mm 2 m/S 746 mmHg 82%
05:00 +10°C° 0 mm 2 m/S 746 mmHg 80%
06:00 +10°C° 0 mm 2 m/S 746 mmHg 77%
07:00 +12°C° 0 mm 2 m/S 746 mmHg 74%
08:00 +13°C° 0 mm 2 m/S 746 mmHg 71%
09:00 +14°C° 0 mm 2 m/S 746 mmHg 65%
10:00 +15°C° 0 mm 2 m/S 747 mmHg 59%
11:00 +16°C° 0 mm 3 m/S 747 mmHg 53%
12:00 +16°C° 0 mm 2 m/S 747 mmHg 52%
13:00 +17°C° 0 mm 2 m/S 746 mmHg 52%
14:00 +17°C° 0 mm 2 m/S 746 mmHg 51%
15:00 +17°C° 0 mm 2 m/S 746 mmHg 54%
16:00 +16°C° 0 mm 2 m/S 746 mmHg 57%
17:00 +16°C° 0 mm 2 m/S 746 mmHg 59%
18:00 +15°C° 0 mm 1 m/S 746 mmHg 66%
19:00 +13°C° 0 mm 1 m/S 746 mmHg 73%
20:00 +12°C° 0 mm 1 m/S 746 mmHg 79%
21:00 +11°C° 0 mm 1 m/S 746 mmHg 83%
22:00 +10°C° 0 mm 1 m/S 746 mmHg 87%
23:00 +9°C° 0 mm 1 m/S 746 mmHg 91%

14 August, Freitag

Zeit Temperatur Niederschläge Wind Luftdruck Luftfeuchtigkeit
00:00 +9°C° 0 mm 1 m/S 746 mmHg 92%
01:00 +8°C° 0 mm 1 m/S 746 mmHg 92%
02:00 +8°C° 0 mm 1 m/S 746 mmHg 93%
03:00 +8°C° 0 mm 1 m/S 746 mmHg 92%
04:00 +8°C° 0 mm 1 m/S 746 mmHg 92%
05:00 +8°C° 0 mm 1 m/S 746 mmHg 91%
06:00 +10°C° 0 mm 1 m/S 746 mmHg 82%
07:00 +13°C° 0 mm 1 m/S 746 mmHg 73%
08:00 +15°C° 0 mm 1 m/S 746 mmHg 64%
09:00 +16°C° 0 mm 1 m/S 746 mmHg 61%
10:00 +19°C° 0 mm 1 m/S 746 mmHg 57%
11:00 +19°C° 0 mm 2 m/S 746 mmHg 53%
12:00 +19°C° 0 mm 2 m/S 745 mmHg 55%
13:00 +19°C° 0 mm 2 m/S 745 mmHg 57%
14:00 +19°C° 0 mm 2 m/S 745 mmHg 59%
15:00 +19°C° 0.1 mm 2 m/S 744 mmHg 65%
16:00 +18°C° 0.1 mm 2 m/S 744 mmHg 71%
17:00 +18°C° 0.1 mm 2 m/S 744 mmHg 77%
18:00 +17°C° 0 mm 2 m/S 744 mmHg 83%
19:00 +16°C° 0 mm 2 m/S 744 mmHg 89%
20:00 +15°C° 0 mm 2 m/S 743 mmHg 95%
21:00 +15°C° 0.1 mm 2 m/S 743 mmHg 95%
22:00 +15°C° 0.1 mm 2 m/S 743 mmHg 95%
23:00 +15°C° 0.1 mm 2 m/S 743 mmHg 95%

15 August, Samstag

Zeit Temperatur Niederschläge Wind Luftdruck Luftfeuchtigkeit
00:00 +15°C° 0.5 mm 2 m/S 743 mmHg 96%
01:00 +15°C° 0.5 mm 2 m/S 743 mmHg 97%
02:00 +15°C° 0.5 mm 2 m/S 743 mmHg 98%
03:00 +15°C° 0.6 mm 2 m/S 743 mmHg 98%
04:00 +15°C° 0.6 mm 2 m/S 743 mmHg 98%
05:00 +14°C° 0.6 mm 2 m/S 742 mmHg 98%
06:00 +15°C° 0.4 mm 2 m/S 742 mmHg 98%
07:00 +15°C° 0.4 mm 2 m/S 742 mmHg 98%
08:00 +15°C° 0.4 mm 2 m/S 742 mmHg 97%
09:00 +15°C° 0.2 mm 2 m/S 742 mmHg 97%
10:00 +16°C° 0.2 mm 2 m/S 742 mmHg 96%
11:00 +16°C° 0.2 mm 2 m/S 742 mmHg 95%
12:00 +17°C° 0.2 mm 2 m/S 742 mmHg 89%
13:00 +19°C° 0.2 mm 2 m/S 742 mmHg 84%
14:00 +20°C° 0.2 mm 2 m/S 741 mmHg 79%
15:00 +20°C° 0.4 mm 2 m/S 741 mmHg 78%
16:00 +20°C° 0.4 mm 2 m/S 741 mmHg 77%
17:00 +21°C° 0.4 mm 2 m/S 741 mmHg 77%
18:00 +19°C° 0.1 mm 2 m/S 741 mmHg 82%
19:00 +18°C° 0.1 mm 2 m/S 741 mmHg 86%
20:00 +16°C° 0.1 mm 2 m/S 740 mmHg 91%
21:00 +15°C° 0 mm 2 m/S 740 mmHg 93%
22:00 +15°C° 0 mm 2 m/S 740 mmHg 95%
23:00 +14°C° 0 mm 2 m/S 740 mmHg 96%
Mehr zeigen